Probability
0 0 0 0 0 0 0 0 0 0 0 3 0 3 3 0 0 0 3 6 6 10 13 16 19 19 13 10 13 10 10 10 10 6 3 3 6 3 10 6 0 6 3 6
0 0 0 0 0 0 0 0 0 0 0 0 3 3 0 0 0 0 6 10 6 6 10 13 16 16 10 10 6 6 10 6 6 3 3 3 3 6 13 10 10 0 3 6
0 0 0 0 0 0 0 0 0 3 0 0 6 0 0 0 0 0 3 3 3 3 3 6 13 13 6 6 3 3 3 6 6 6 6 6 10 13 10 6 6 3 3 3
0 0 0 0 0 0 0 0 0 0 0 0 0 0 0 0 3 3 3 3 3 3 3 3 6 6 3 3 3 3 3 3 6 6 3 3 3 6 6 6 6 6 3 3
0 0 0 0 0 0 0 0 0 0 0 0 3 6 6 6 0 3 3 3 3 3 3 3 3 3 3 3 3 3 3 3 3 6 6 3 3 3 3 6 6 6 6 6
0 0 0 0 0 0 0 0 0 0 0 0 3 6 3 3 0 3 0 3 3 6 3 6 3 3 3 3 3 3 3 3 3 3 3 3 3 3 3 3 6 6 10 10
0 0 0 0 0 0 0 0 0 0 3 0 3 3 3 3 3 3 0 0 0 3 3 3 0 3 3 3 3 3 3 3 3 3 3 3 3 3 3 3 3 3 10 10
0 0 0 0 0 0 0 0 0 0 0 0 0 0 3 3 0 3 0 0 0 0 3 3 3 3 3 3 3 3 6 3 0 0 3 3 3 3 3 3 3 3 3 3
0 0 0 0 0 0 0 0 0 0 0 3 3 0 0 3 0 3 0 0 0 0 0 0 0 3 3 3 0 0 0 3 0 0 0 3 3 3 3 3 3 3 0 0
0 0 0 0 0 0 0 0 0 0 3 3 3 0 0 0 0 0 3 0 0 0 0 0 0 0 3 3 0 0 0 3 0 0 0 3 3 3 3 3 3 3 0 0
0 0 0 0 0 0 0 0 3 3 3 3 3 0 0 3 3 0 0 0 0 0 0 0 0 0 0 0 0 0 0 0 0 0 0 3 3 0 3 3 3 0 0 3
0 0 0 0 0 0 0 3 3 3 3 3 3 0 0 0 0 3 0 0 0 0 0 0 0 0 0 0 0 0 0 0 0 0 0 3 0 0 0 0 0 0 0 0
0 0 0 0 0 0 0 3 6 3 3 3 3 3 0 0 0 0 0 3 3 0 0 0 0 0 0 0 0 0 0 0 0 0 0 0 0 0 0 0 0 0 0 0
0 0 0 0 0 0 3 6 6 3 3 3 3 3 0 0 0 0 0 0 0 6 3 0 0 0 0 0 0 0 0 0 0 0 0 0 0 0 0 3 3 3 3 0
0 0 0 0 0 0 3 6 3 3 3 3 3 3 3 3 3 3 3 0 0 0 3 3 0 0 0 0 0 0 0 0 0 0 0 0 0 3 3 3 3 3 3 3
0 0 0 0 0 3 6 6 3 3 3 3 3 3 3 3 3 3 3 0 0 0 0 0 0 0 0 0 0 0 0 0 0 0 0 3 3 3 3 3 3 3 3 3
0 0 0 0 0 0 3 6 0 0 3 3 3 3 3 3 3 3 3 3 0 0 0 0 0 0 0 0 3 3 3 3 0 3 3 3 3 3 3 3 3 3 3 3
0 0 0 0 0 0 0 6 6 6 3 3 0 3 3 3 3 3 3 3 3 3 0 0 0 0 0 3 3 3 3 3 6 6 6 6 6 6 6 6 6 6 6 6
0 0 0 0 0 0 3 6 6 6 3 3 3 3 3 3 0 0 3 3 3 3 3 3 0 0 0 3 3 3 3 3 3 3 3 6 6 6 6 6 6 3 3 3
0 0 0 0 3 3 6 6 6 6 3 3 3 3 3 3 3 3 3 3 3 3 3 3 3 0 3 3 0 3 3 3 3 3 3 3 3 0 3 3 3 3 3 3
0 0 0 3 3 3 3 3 6 0 0 0 3 3 3 3 3 3 3 3 3 3 3 3 3 3 3 0 0 3 3 3 0 0 0 0 0 0 0 0 0 3 3 3
3 0 0 0 3 3 3 3 0 0 0 0 3 3 3 3 3 3 0 0 0 0 0 0 0 0 0 0 0 0 0 0 0 0 0 0 0 0 0 0 0 0 0 0
0 3 0 0 0 0 0 0 0 0 0 3 3 3 3 3 3 0 0 0 0 0 0 0 0 0 0 0 0 0 0 0 0 0 0 0 0 0 0 0 0 0 0 0
0 3 3 0 0 0 0 0 0 0 3 3 3 3 3 0 0 0 0 0 0 0 0 0 0 0 0 0 0 0 0 0 0 0 0 0 0 0 0 0 0 0 0 0
0 0 3 0 3 3 0 0 3 3 3 3 0 0 0 0 0 0 0 0 0 0 0 0 0 0 0 0 0 0 0 0 0 0 0 0 0 0 0 0 0 0 0 0
0 0 3 3 0 0 0 3 3 3 3 0 0 0 0 0 0 0 0 0 0 0 0 0 0 0 0 0 0 0 0 0 0 0 0 0 0 0 0 0 0 0 0 0
0 0 0 0 3 3 3 3 3 0 0 0 0 0 0 0 0 0 0 0 0 0 0 0 0 0 0 0 0 0 0 0 0 0 0 0 0 0 0 0 0 0 0 0
Height
5857 5858 5859 5860 5861 5861 5861 5861 5861 5861 5860 5860 5859 5858 5857 5857 5855 5854 5853 5851 5850 5848 5847 5845 5844 5843 5842 5840 5839 5838 5836 5835 5833 5831 5830 5828 5826 5823 5821 5818 5816 5814 5812 5810
5851 5852 5853 5853 5855 5855 5855 5855 5855 5855 5855 5855 5853 5852 5852 5851 5850 5849 5848 5847 5846 5844 5842 5841 5839 5838 5837 5835 5834 5832 5831 5830 5828 5826 5824 5822 5820 5818 5816 5813 5811 5809 5806 5804
5844 5846 5846 5847 5849 5849 5850 5850 5850 5849 5850 5849 5848 5847 5847 5846 5845 5844 5843 5842 5840 5839 5838 5836 5835 5833 5832 5830 5828 5827 5825 5824 5822 5820 5819 5817 5815 5813 5810 5807 5805 5802 5800 5798
5837 5839 5839 5843 5843 5843 5843 5844 5843 5843 5843 5843 5842 5842 5841 5840 5839 5838 5837 5836 5834 5833 5832 5831 5829 5828 5826 5825 5823 5821 5820 5818 5817 5815 5813 5811 5809 5807 5804 5801 5799 5796 5794 5791
5830 5830 5832 5835 5836 5837 5837 5837 5837 5837 5837 5836 5836 5836 5835 5834 5833 5832 5831 5830 5829 5827 5826 5825 5823 5822 5821 5819 5817 5816 5814 5813 5811 5809 5807 5805 5803 5801 5798 5795 5792 5789 5787 5785
5822 5824 5825 5829 5829 5829 5831 5831 5831 5831 5830 5830 5830 5830 5830 5829 5827 5826 5826 5825 5823 5822 5821 5819 5818 5816 5815 5813 5812 5810 5808 5807 5805 5803 5801 5799 5797 5794 5792 5789 5786 5783 5780 5778
5815 5816 5818 5821 5821 5823 5824 5825 5824 5824 5823 5823 5823 5823 5823 5822 5821 5820 5819 5819 5817 5816 5815 5813 5811 5810 5809 5807 5806 5804 5803 5801 5799 5797 5795 5793 5791 5788 5785 5782 5779 5776 5773 5771
5807 5809 5812 5813 5814 5815 5816 5817 5817 5817 5817 5817 5816 5816 5816 5815 5814 5813 5812 5812 5811 5810 5808 5807 5805 5804 5803 5802 5800 5798 5797 5795 5793 5791 5789 5787 5784 5781 5779 5776 5773 5770 5767 5765
5800 5803 5804 5805 5806 5807 5808 5809 5809 5810 5810 5810 5809 5809 5809 5808 5807 5806 5805 5804 5803 5802 5801 5800 5799 5798 5797 5795 5793 5792 5790 5788 5786 5784 5782 5780 5777 5775 5772 5770 5767 5764 5761 5759
5792 5793 5795 5796 5798 5799 5800 5801 5802 5802 5802 5802 5802 5801 5801 5800 5800 5799 5798 5797 5796 5795 5794 5793 5792 5791 5790 5788 5787 5785 5784 5782 5780 5778 5776 5773 5771 5768 5766 5763 5760 5758 5755 5752
5782 5785 5786 5788 5790 5791 5792 5793 5793 5794 5794 5794 5793 5793 5793 5793 5792 5792 5791 5791 5790 5789 5787 5786 5785 5784 5783 5782 5780 5779 5777 5775 5773 5771 5769 5767 5764 5761 5759 5756 5753 5751 5749 5746
5773 5775 5778 5779 5781 5783 5783 5784 5785 5785 5786 5786 5786 5785 5785 5785 5785 5784 5784 5783 5782 5781 5780 5779 5778 5777 5776 5775 5774 5772 5770 5769 5767 5765 5762 5760 5757 5754 5752 5750 5747 5745 5742 5740
5764 5766 5768 5770 5772 5773 5775 5776 5776 5777 5777 5777 5777 5777 5777 5778 5777 5777 5776 5776 5775 5774 5773 5772 5771 5770 5769 5768 5767 5765 5764 5762 5760 5758 5755 5753 5750 5748 5745 5743 5741 5739 5736 5734
5754 5756 5758 5761 5763 5764 5766 5767 5768 5768 5768 5768 5769 5769 5770 5770 5769 5769 5768 5768 5767 5767 5766 5765 5764 5763 5762 5761 5760 5758 5757 5755 5753 5751 5749 5746 5744 5741 5739 5737 5735 5733 5731 5728
5746 5748 5750 5752 5753 5755 5757 5758 5759 5759 5760 5761 5761 5761 5761 5762 5761 5761 5760 5759 5759 5759 5759 5758 5757 5756 5755 5753 5752 5750 5749 5747 5746 5744 5742 5739 5736 5734 5732 5730 5728 5727 5725 5723
5738 5739 5741 5743 5745 5746 5748 5749 5750 5751 5752 5752 5753 5753 5753 5753 5753 5752 5752 5752 5752 5752 5751 5750 5749 5748 5747 5746 5744 5743 5741 5740 5738 5736 5734 5732 5730 5728 5726 5724 5722 5720 5718 5717
5730 5731 5733 5734 5736 5737 5738 5739 5741 5742 5743 5744 5744 5744 5744 5744 5745 5745 5744 5744 5744 5744 5743 5742 5741 5740 5739 5738 5736 5735 5733 5732 5730 5728 5727 5725 5723 5721 5719 5717 5716 5714 5712 5710
5722 5724 5725 5726 5727 5728 5730 5731 5732 5733 5734 5735 5735 5736 5736 5736 5736 5736 5736 5736 5736 5736 5735 5734 5733 5732 5731 5730 5729 5727 5726 5724 5722 5721 5719 5717 5715 5714 5712 5710 5709 5707 5705 5703
5715 5716 5717 5719 5720 5721 5722 5722 5724 5724 5725 5726 5727 5728 5728 5728 5728 5728 5728 5728 5728 5728 5727 5726 5725 5724 5723 5722 5720 5719 5718 5716 5715 5713 5711 5710 5708 5706 5705 5703 5701 5700 5698 5696
5708 5709 5710 5711 5712 5713 5714 5714 5715 5716 5717 5718 5719 5720 5720 5720 5721 5721 5720 5720 5720 5720 5719 5718 5717 5716 5715 5714 5713 5712 5710 5709 5707 5706 5704 5702 5701 5699 5698 5696 5695 5693 5691 5689
5702 5703 5703 5704 5705 5706 5706 5706 5707 5708 5709 5711 5712 5712 5713 5713 5714 5713 5713 5713 5712 5712 5711 5710 5710 5709 5708 5706 5705 5704 5702 5701 5700 5698 5696 5695 5693 5692 5690 5688 5687 5685 5684 5682
5696 5696 5697 5698 5698 5699 5699 5699 5700 5701 5702 5703 5704 5705 5706 5706 5706 5706 5706 5705 5705 5704 5704 5703 5702 5701 5700 5699 5698 5696 5695 5693 5692 5690 5689 5687 5685 5684 5682 5681 5679 5677 5676 5674
5690 5691 5691 5692 5692 5692 5692 5693 5693 5694 5695 5697 5697 5698 5699 5699 5699 5699 5699 5698 5697 5697 5696 5696 5695 5694 5692 5691 5690 5689 5687 5686 5684 5682 5681 5679 5677 5676 5674 5673 5671 5670 5668 5666
5685 5685 5686 5686 5686 5686 5687 5687 5687 5688 5689 5690 5691 5691 5692 5692 5692 5692 5691 5691 5691 5690 5689 5688 5687 5686 5685 5684 5683 5681 5680 5678 5676 5674 5673 5671 5669 5667 5666 5664 5663 5661 5660 5658
5680 5680 5681 5681 5681 5681 5681 5682 5682 5683 5684 5684 5684 5684 5685 5684 5684 5684 5684 5684 5683 5683 5682 5681 5680 5679 5678 5677 5675 5674 5672 5670 5668 5666 5664 5662 5660 5658 5657 5655 5654 5653 5651 5649
5675 5676 5676 5676 5677 5677 5677 5677 5677 5678 5678 5679 5679 5678 5678 5678 5677 5677 5677 5676 5676 5675 5675 5674 5673 5672 5670 5669 5667 5666 5664 5662 5660 5658 5656 5654 5652 5650 5648 5647 5645 5644 5642 5640
5671 5671 5672 5672 5672 5672 5672 5672 5673 5673 5673 5673 5673 5673 5672 5671 5671 5670 5670 5669 5669 5668 5667 5666 5665 5664 5663 5661 5659 5658 5655 5653 5652 5650 5647 5646 5644 5642 5640 5638 5636 5635 5633 5631
Wind_Speed
22 22 23 23 23 23 23 22 22 21 21 20 21 20 20 18 18 18 17 17 18 18 17 18 18 18 19 19 19 19 20 20 20 19 19 20 21 22 22 21 21 20 21 21
24 24 25 25 24 23 22 22 22 22 21 20 21 21 20 19 18 18 18 19 19 18 18 18 19 18 19 19 20 20 20 20 20 21 21 21 21 22 21 21 21 22 22 22
26 26 27 26 24 24 23 23 23 22 21 21 20 20 20 20 19 19 20 20 20 19 19 19 19 19 19 19 20 21 20 20 22 22 22 22 22 22 22 23 23 23 23 22
29 29 29 26 25 24 24 24 24 24 23 22 21 21 20 20 20 20 20 21 20 20 20 20 20 20 20 20 20 20 21 21 22 23 23 22 23 23 23 23 23 23 23 23
31 30 29 27 25 24 24 24 24 25 24 23 22 21 21 21 21 21 20 21 21 21 21 21 22 21 20 20 20 21 21 22 22 22 23 23 23 24 24 25 24 24 24 24
31 31 30 27 27 26 26 25 24 24 24 23 22 22 22 22 22 21 21 21 22 21 21 22 22 21 21 21 21 21 22 23 23 23 23 24 24 24 24 25 25 25 25 24
30 30 30 29 28 27 27 24 23 23 23 23 22 22 23 23 22 22 22 22 22 22 22 22 23 22 21 21 22 22 22 23 23 23 24 24 24 24 25 26 25 24 24 24
31 31 30 29 29 28 27 25 25 25 24 24 24 24 24 24 23 23 23 22 23 22 22 22 22 22 21 22 22 22 22 22 23 24 24 24 24 24 25 24 25 24 24 24
32 31 30 30 29 29 28 28 28 27 26 26 26 25 25 25 25 24 24 24 23 23 23 22 22 22 22 22 22 21 21 22 22 23 23 24 24 25 25 25 25 25 24 24
32 32 31 30 29 29 28 28 28 28 27 26 26 26 26 26 26 25 25 23 22 23 23 23 22 22 22 21 21 21 22 22 22 22 23 24 24 25 25 25 25 25 24 23
34 33 32 31 31 30 30 29 28 27 27 26 27 27 27 28 27 27 26 24 24 24 25 24 22 22 22 22 22 22 22 22 23 23 23 24 24 25 25 25 25 24 23 22
34 34 33 32 32 31 31 30 29 28 27 27 27 27 27 28 27 27 26 25 24 23 23 23 23 23 23 22 22 22 22 23 23 23 24 24 24 25 25 25 24 23 22 21
34 34 33 33 32 31 31 30 29 28 28 28 27 27 27 26 26 25 25 24 24 24 24 23 23 23 22 22 23 23 23 24 24 24 24 25 25 24 24 24 24 22 22 21
32 31 32 33 32 31 30 30 30 29 28 28 27 27 27 26 26 27 26 25 25 24 24 23 23 23 24 24 23 23 24 24 25 25 24 24 25 24 24 23 22 21 21 21
31 31 31 31 32 31 30 30 29 29 28 29 28 28 28 28 28 28 27 25 25 25 25 25 25 25 25 25 25 25 25 26 26 25 25 25 24 24 23 22 22 22 21 22
30 30 30 31 30 30 30 30 30 30 29 29 29 29 28 27 27 27 27 26 26 26 26 26 26 25 25 25 25 26 26 26 25 25 24 25 24 23 23 23 23 23 23 23
27 28 28 29 29 29 29 29 29 29 29 28 28 28 27 27 27 27 26 25 26 26 26 26 26 25 25 25 25 25 25 25 25 25 24 24 24 24 24 24 23 23 23 23
26 26 27 27 27 27 27 27 27 27 27 26 26 27 27 27 27 27 26 25 25 25 26 25 25 25 25 25 25 24 24 24 24 24 24 24 24 24 24 24 23 23 24 23
23 24 24 25 25 25 25 25 25 26 26 26 26 27 27 27 26 26 26 25 25 25 25 25 24 24 24 24 24 24 24 24 24 24 24 24 24 25 25 24 23 23 24 23
22 22 22 23 24 24 23 24 24 25 25 25 25 25 25 25 25 25 25 25 25 25 24 24 24 24 24 23 24 24 24 24 25 25 25 25 25 25 25 24 24 24 25 24
20 21 21 22 22 23 23 23 23 22 23 23 23 23 24 24 23 23 23 24 25 25 24 24 24 24 23 23 24 24 24 24 25 25 25 24 25 25 25 25 24 25 25 25
19 19 20 20 20 21 22 22 22 22 22 22 22 22 22 22 22 22 22 22 23 24 24 23 23 23 23 23 24 23 24 24 24 25 25 25 25 26 26 25 25 25 25 25
17 18 18 18 18 19 20 20 21 22 21 21 20 21 22 22 22 22 22 22 22 22 22 22 23 23 23 23 23 23 23 24 25 25 26 26 26 26 25 25 25 25 25 25
16 16 16 17 17 17 18 18 18 19 19 20 20 20 21 22 22 22 22 21 21 21 21 22 22 22 23 23 23 23 24 25 26 26 26 27 27 26 26 25 25 25 25 25
15 15 15 15 15 15 16 16 15 16 17 18 19 20 21 21 21 21 22 21 21 21 21 21 22 22 22 23 23 24 24 25 25 26 26 27 26 26 26 25 25 25 25 25
14 15 15 15 15 14 14 15 15 16 16 17 19 20 21 21 21 22 22 22 22 22 22 22 22 23 23 23 24 25 25 25 25 26 25 25 25 25 25 26 25 26 26 26
14 14 15 14 14 15 15 15 16 16 16 16 17 18 18 19 20 20 20 20 20 21 21 22 22 23 23 23 24 25 25 25 25 25 25 25 25 25 25 25 25 25 25 24
Wind_Direction
259 259 261 262 264 266 268 270 274 281 287 288 290 291 290 290 293 291 289 288 291 290 290 292 289 288 287 286 288 289 289 291 294 296 297 298 299 300 304 304 302 299 299 298
258 259 262 264 265 266 267 269 273 278 285 289 290 290 287 286 288 289 287 288 288 287 290 291 289 289 289 288 289 289 289 291 295 294 295 297 299 301 303 304 301 299 299 298
257 260 262 265 265 264 265 268 274 278 283 286 286 286 284 284 286 288 287 287 289 287 289 290 289 289 289 291 291 289 288 291 293 294 294 297 300 301 302 303 302 299 298 298
258 259 262 265 265 265 266 267 271 276 279 279 281 281 281 284 284 284 285 287 287 285 285 286 287 288 287 288 290 289 290 291 293 295 295 296 297 298 300 301 300 299 298 298
258 259 262 263 266 267 266 267 269 273 274 277 279 279 282 284 284 281 281 283 284 284 282 285 287 288 286 287 288 290 292 292 294 295 295 296 298 298 299 301 299 297 296 296
257 259 262 263 265 267 269 271 273 274 273 274 275 278 281 282 282 282 282 283 284 282 282 284 285 285 287 287 288 291 293 293 294 295 297 297 298 299 300 301 299 297 294 294
258 260 261 262 264 268 270 273 275 275 274 274 275 277 279 280 281 280 279 282 283 283 283 285 285 285 290 287 287 291 292 293 294 295 296 298 299 300 300 301 300 298 297 294
257 259 261 262 264 266 268 270 271 274 275 274 275 276 277 278 279 278 277 279 281 280 280 284 287 289 290 286 287 291 292 294 295 295 296 297 299 300 302 302 301 300 299 298
257 259 261 261 263 264 265 267 270 272 274 277 277 276 276 276 277 275 276 277 277 278 280 285 287 288 289 289 290 292 292 294 295 295 296 297 298 300 302 301 302 301 300 299
257 258 260 260 261 262 264 266 269 271 272 276 277 276 275 276 275 276 278 280 281 282 282 282 284 286 287 290 289 290 293 295 296 296 296 297 298 299 300 301 301 302 300 299
256 257 259 260 261 262 263 264 267 270 272 273 274 274 274 274 274 276 276 281 282 283 283 283 282 286 287 288 288 289 293 296 297 296 296 296 297 298 298 300 300 300 300 300
256 257 259 259 260 261 262 264 267 267 269 270 271 272 273 274 275 276 278 281 282 282 284 287 288 288 287 286 287 291 295 298 298 297 297 298 299 300 300 300 302 300 299 300
256 257 258 259 260 261 263 264 266 266 267 268 270 272 272 273 275 275 276 279 281 283 286 287 286 286 285 288 290 292 294 297 298 298 298 299 300 300 300 299 300 299 298 299
256 257 257 257 257 258 261 263 264 266 266 267 268 270 272 273 274 274 276 278 280 282 283 284 284 284 286 289 290 291 293 295 297 298 298 298 299 298 298 298 299 299 299 299
253 254 255 256 257 258 260 262 264 263 264 265 267 270 271 273 274 274 274 275 278 280 280 282 283 284 284 287 288 289 291 292 294 296 297 299 298 297 297 296 298 299 299 299
252 254 255 256 257 259 260 261 262 262 263 264 266 269 270 272 272 271 272 274 276 278 279 281 282 283 284 285 285 286 288 289 291 292 294 296 296 295 297 296 296 298 299 298
251 254 256 256 258 260 260 260 261 261 262 264 267 268 268 268 270 272 273 273 275 277 278 280 281 283 284 285 285 286 287 288 289 290 292 293 293 293 293 294 294 295 297 297
253 255 256 257 258 259 260 260 260 260 262 263 265 267 266 268 270 271 270 271 273 276 278 279 280 282 284 284 284 285 287 288 290 291 292 293 292 292 293 293 293 293 295 295
254 255 256 256 257 259 258 258 260 262 262 263 266 266 265 266 268 268 268 268 271 274 278 279 281 282 284 285 286 287 288 289 289 290 290 291 292 293 293 293 293 293 293 293
254 256 257 257 259 261 262 261 261 263 265 264 264 264 264 265 267 270 270 269 271 274 277 279 279 281 283 284 286 288 288 289 288 289 290 291 291 292 293 291 290 290 291 291
256 259 261 263 263 264 263 262 261 262 263 263 265 266 266 266 268 273 274 273 273 274 277 279 280 281 284 285 286 287 288 289 289 289 289 289 290 291 292 290 288 289 289 290
259 261 262 263 263 264 262 261 261 262 262 264 266 268 270 270 274 276 277 278 277 275 275 277 280 282 283 285 286 288 289 289 289 288 287 287 288 290 291 290 289 289 289 289
261 262 262 263 264 263 263 263 263 263 263 263 264 265 268 271 276 279 277 277 277 278 278 280 281 283 285 286 287 288 289 290 290 289 288 288 289 290 288 287 288 289 289 288
260 261 263 265 266 264 265 265 263 263 262 263 265 266 270 274 276 277 277 275 276 278 281 283 285 286 287 287 287 288 289 290 290 289 288 288 288 287 287 285 285 287 288 288
260 260 262 263 267 268 264 260 260 261 261 264 267 271 274 277 276 275 277 278 280 280 281 283 285 287 287 287 287 288 289 289 289 288 288 289 289 288 286 284 285 285 286 287
263 264 265 268 270 267 262 259 260 263 268 270 270 273 275 278 280 279 279 280 281 280 281 283 285 286 286 287 287 288 288 289 289 289 289 290 291 291 289 287 286 285 286 286
266 268 268 269 270 267 263 263 265 268 272 276 277 279 280 280 280 280 282 282 281 282 284 285 286 286 287 288 289 290 291 291 290 290 290 291 291 291 291 290 289 289 288 288